Location: Unspecified
(51.5147°N, 7.4673°E)
Time: 08:15:52
(UTC+01:00)

A-11 Canister half - Pass Details

Date: 25 February 2026
Orbit: 1512 x 1687 km, 47.2° (Epoch: 8 March)

Event Time Altitude Azimuth Distance (km) Brightness Sun altitude
Rises 01:21:21 0° 285° (WNW) 4,922 11.7 -46.9°
Enters shadow 01:22:34 - 284° (WNW) 4,556 11.5 -46.9°
Reaches altitude 10° 01:24:45 10° 279° (W) 3,916 - -46.8°
Maximum altitude 01:33:51 42° 214° (SW) 2,188 - -46.4°
Drops below altitude 10° 01:42:39 10° 148° (SSE) 3,783 - -45.9°
Sets 01:45:54 0° 141° (SE) 4,741 - -45.7°
